Year,Month,Day,Hour,Minute,Value (Times are PST for barometer in hPa)
2008,01,05,00,00,969.40
2008,01,05,00,01,969.39
2008,01,05,00,02,969.39
2008,01,05,00,03,969.39
2008,01,05,00,04,969.39
2008,01,05,00,05,969.39
2008,01,05,00,06,969.39
2008,01,05,00,07,969.39
2008,01,05,00,08,969.39
2008,01,05,00,09,969.39
2008,01,05,00,10,969.39
2008,01,05,00,11,969.39
2008,01,05,00,12,969.39
2008,01,05,00,13,969.39
2008,01,05,00,14,969.39
2008,01,05,00,15,969.59
2008,01,05,00,16,969.69
2008,01,05,00,17,969.69
2008,01,05,00,18,969.69
2008,01,05,00,19,969.69
2008,01,05,00,20,969.69
2008,01,05,00,21,969.69
2008,01,05,00,22,969.69
2008,01,05,00,23,969.69
2008,01,05,00,24,969.69
2008,01,05,00,25,969.69
2008,01,05,00,26,969.69
2008,01,05,00,27,969.69
2008,01,05,00,28,969.69
2008,01,05,00,29,969.69
2008,01,05,00,30,969.90
2008,01,05,00,31,970.00
2008,01,05,00,32,970.00
2008,01,05,00,33,970.00
2008,01,05,00,34,970.00
2008,01,05,00,35,970.00
2008,01,05,00,36,970.00
2008,01,05,00,37,970.00
2008,01,05,00,38,970.00
2008,01,05,00,39,970.00
2008,01,05,00,40,970.00
2008,01,05,00,41,970.00
2008,01,05,00,42,970.00
2008,01,05,00,43,970.00
2008,01,05,00,44,970.00
2008,01,05,00,45,970.29
2008,01,05,00,46,970.44
2008,01,05,00,47,970.44
2008,01,05,00,48,970.44
2008,01,05,00,49,970.44
2008,01,05,00,50,970.44
2008,01,05,00,51,970.44
2008,01,05,00,52,970.44
2008,01,05,00,53,970.44
2008,01,05,00,54,970.44
2008,01,05,00,55,970.44
2008,01,05,00,56,970.44
2008,01,05,00,57,970.44
2008,01,05,00,58,970.44
2008,01,05,00,59,970.44
2008,01,05,01,00,970.44
2008,01,05,01,01,970.44
2008,01,05,01,02,970.44
2008,01,05,01,03,970.44
2008,01,05,01,04,970.44
2008,01,05,01,05,970.44
2008,01,05,01,06,970.44
2008,01,05,01,07,970.44
2008,01,05,01,08,970.44
2008,01,05,01,09,970.44
2008,01,05,01,10,970.44
2008,01,05,01,11,970.44
2008,01,05,01,12,970.44
2008,01,05,01,13,970.44
2008,01,05,01,14,970.44
2008,01,05,01,15,970.55
2008,01,05,01,16,970.61
2008,01,05,01,17,970.61
2008,01,05,01,18,970.61
2008,01,05,01,19,970.61
2008,01,05,01,20,970.61
2008,01,05,01,21,970.61
2008,01,05,01,22,970.61
2008,01,05,01,23,970.61
2008,01,05,01,24,970.61
2008,01,05,01,25,970.61
2008,01,05,01,26,970.61
2008,01,05,01,27,970.61
2008,01,05,01,28,970.61
2008,01,05,01,29,970.61
2008,01,05,01,30,970.83
2008,01,05,01,31,970.95
2008,01,05,01,32,970.95
2008,01,05,01,33,970.95
2008,01,05,01,34,970.95
2008,01,05,01,35,970.95
2008,01,05,01,36,970.95
2008,01,05,01,37,970.95
2008,01,05,01,38,970.95
2008,01,05,01,39,970.95
2008,01,05,01,40,970.95
2008,01,05,01,41,970.95
2008,01,05,01,42,970.95
2008,01,05,01,43,970.95
2008,01,05,01,44,970.95
2008,01,05,01,45,971.01
2008,01,05,01,46,971.05
2008,01,05,01,47,971.05
2008,01,05,01,48,971.05
2008,01,05,01,49,971.05
2008,01,05,01,50,971.05
2008,01,05,01,51,971.05
2008,01,05,01,52,971.05
2008,01,05,01,53,971.05
2008,01,05,01,54,971.05
2008,01,05,01,55,971.05
2008,01,05,01,56,971.05
2008,01,05,01,57,971.05
2008,01,05,01,58,971.05
2008,01,05,01,59,971.05
2008,01,05,02,00,971.31
2008,01,05,02,01,971.49
2008,01,05,02,02,971.49
2008,01,05,02,03,971.49
2008,01,05,02,04,971.49
2008,01,05,02,05,971.49
2008,01,05,02,06,971.49
2008,01,05,02,07,971.49
2008,01,05,02,08,971.49
2008,01,05,02,09,971.49
2008,01,05,02,10,971.49
2008,01,05,02,11,971.49
2008,01,05,02,12,971.49
2008,01,05,02,13,971.49
2008,01,05,02,14,971.49
2008,01,05,02,15,971.80
2008,01,05,02,16,972.00
2008,01,05,02,17,972.00
2008,01,05,02,18,972.00
2008,01,05,02,19,972.00
2008,01,05,02,20,972.00
2008,01,05,02,21,972.00
2008,01,05,02,22,972.00
2008,01,05,02,23,972.00
2008,01,05,02,24,972.00
2008,01,05,02,25,972.00
2008,01,05,02,26,972.00
2008,01,05,02,27,972.00
2008,01,05,02,28,972.00
2008,01,05,02,29,972.00
2008,01,05,02,30,972.37
2008,01,05,02,31,972.61
2008,01,05,02,32,972.61
2008,01,05,02,33,972.61
2008,01,05,02,34,972.61
2008,01,05,02,35,972.61
2008,01,05,02,36,972.61
2008,01,05,02,37,972.61
2008,01,05,02,38,972.61
2008,01,05,02,39,972.61
2008,01,05,02,40,972.61
2008,01,05,02,41,972.61
2008,01,05,02,42,972.61
2008,01,05,02,43,972.61
2008,01,05,02,44,972.61
2008,01,05,02,45,972.92
2008,01,05,02,46,973.08
2008,01,05,02,47,973.08
2008,01,05,02,48,973.08
2008,01,05,02,49,973.08
2008,01,05,02,50,973.08
2008,01,05,02,51,973.08
2008,01,05,02,52,973.08
2008,01,05,02,53,973.08
2008,01,05,02,54,973.08
2008,01,05,02,55,973.08
2008,01,05,02,56,973.08
2008,01,05,02,57,973.08
2008,01,05,02,58,973.08
2008,01,05,02,59,973.08
2008,01,05,03,00,973.32
2008,01,05,03,01,973.45
2008,01,05,03,02,973.45
2008,01,05,03,03,973.45
2008,01,05,03,04,973.45
2008,01,05,03,05,973.45
2008,01,05,03,06,973.45
2008,01,05,03,07,973.45
2008,01,05,03,08,973.45
2008,01,05,03,09,973.45
2008,01,05,03,10,973.45
2008,01,05,03,11,973.45
2008,01,05,03,12,973.45
2008,01,05,03,13,973.45
2008,01,05,03,14,973.45
2008,01,05,03,15,973.74
2008,01,05,03,16,973.93
2008,01,05,03,17,973.93
2008,01,05,03,18,973.93
2008,01,05,03,19,973.93
2008,01,05,03,20,973.93
2008,01,05,03,21,973.93
2008,01,05,03,22,973.93
2008,01,05,03,23,973.93
2008,01,05,03,24,973.93
2008,01,05,03,25,973.93
2008,01,05,03,26,973.93
2008,01,05,03,27,973.93
2008,01,05,03,28,973.93
2008,01,05,03,29,973.93
2008,01,05,03,30,974.03
2008,01,05,03,31,974.10
2008,01,05,03,32,974.10
2008,01,05,03,33,974.10
2008,01,05,03,34,974.10
2008,01,05,03,35,974.10
2008,01,05,03,36,974.10
2008,01,05,03,37,974.10
2008,01,05,03,38,974.10
2008,01,05,03,39,974.10
2008,01,05,03,40,974.10
2008,01,05,03,41,974.10
2008,01,05,03,42,974.10
2008,01,05,03,43,974.10
2008,01,05,03,44,974.10
2008,01,05,03,45,974.22
2008,01,05,03,46,974.30
2008,01,05,03,47,974.30
2008,01,05,03,48,974.30
2008,01,05,03,49,974.30
2008,01,05,03,50,974.30
2008,01,05,03,51,974.30
2008,01,05,03,52,974.30
2008,01,05,03,53,974.30
2008,01,05,03,54,974.30
2008,01,05,03,55,974.30
2008,01,05,03,56,974.30
2008,01,05,03,57,974.30
2008,01,05,03,58,974.30
2008,01,05,03,59,974.30
2008,01,05,04,00,974.50
2008,01,05,04,01,974.64
2008,01,05,04,02,974.64
2008,01,05,04,03,974.64
2008,01,05,04,04,974.64
2008,01,05,04,05,974.64
2008,01,05,04,06,974.64
2008,01,05,04,07,974.64
2008,01,05,04,08,974.64
2008,01,05,04,09,974.64
2008,01,05,04,10,974.64
2008,01,05,04,11,974.64
2008,01,05,04,12,974.64
2008,01,05,04,13,974.64
2008,01,05,04,14,974.64
2008,01,05,04,15,974.90
2008,01,05,04,16,975.08
2008,01,05,04,17,975.08
2008,01,05,04,18,975.08
2008,01,05,04,19,975.08
2008,01,05,04,20,975.08
2008,01,05,04,21,975.08
2008,01,05,04,22,975.08
2008,01,05,04,23,975.08
2008,01,05,04,24,975.08
2008,01,05,04,25,975.08
2008,01,05,04,26,975.08
2008,01,05,04,27,975.08
2008,01,05,04,28,975.08
2008,01,05,04,29,975.08
2008,01,05,04,30,975.19
2008,01,05,04,31,975.28
2008,01,05,04,32,975.28
2008,01,05,04,33,975.28
2008,01,05,04,34,975.28
2008,01,05,04,35,975.28
2008,01,05,04,36,975.28
2008,01,05,04,37,975.28
2008,01,05,04,38,975.28
2008,01,05,04,39,975.28
2008,01,05,04,40,975.28
2008,01,05,04,41,975.28
2008,01,05,04,42,975.28
2008,01,05,04,43,975.28
2008,01,05,04,44,975.28
2008,01,05,04,45,975.77
2008,01,05,04,46,976.09
2008,01,05,04,47,976.09
2008,01,05,04,48,976.09
2008,01,05,04,49,976.09
2008,01,05,04,50,976.09
2008,01,05,04,51,976.09
2008,01,05,04,52,976.09
2008,01,05,04,53,976.09
2008,01,05,04,54,976.09
2008,01,05,04,55,976.09
2008,01,05,04,56,976.09
2008,01,05,04,57,976.09
2008,01,05,04,58,976.09
2008,01,05,04,59,976.09
2008,01,05,05,00,976.11
2008,01,05,05,01,976.13
2008,01,05,05,02,976.13
2008,01,05,05,03,976.13
2008,01,05,05,04,976.13
2008,01,05,05,05,976.13
2008,01,05,05,06,976.13
2008,01,05,05,07,976.13
2008,01,05,05,08,976.13
2008,01,05,05,09,976.13
2008,01,05,05,10,976.13
2008,01,05,05,11,976.13
2008,01,05,05,12,976.13
2008,01,05,05,13,976.13
2008,01,05,05,14,976.13
2008,01,05,05,15,976.64
2008,01,05,05,16,977.01
2008,01,05,05,17,977.01
2008,01,05,05,18,977.01
2008,01,05,05,19,977.01
2008,01,05,05,20,977.01
2008,01,05,05,21,977.01
2008,01,05,05,22,977.01
2008,01,05,05,23,977.01
2008,01,05,05,24,977.01
2008,01,05,05,25,977.01
2008,01,05,05,26,977.01
2008,01,05,05,27,977.01
2008,01,05,05,28,977.01
2008,01,05,05,29,977.01
2008,01,05,05,30,977.07
2008,01,05,05,31,977.11
2008,01,05,05,32,977.11
2008,01,05,05,33,977.11
2008,01,05,05,34,977.11
2008,01,05,05,35,977.11
2008,01,05,05,36,977.11
2008,01,05,05,37,977.11
2008,01,05,05,38,977.11
2008,01,05,05,39,977.11
2008,01,05,05,40,977.11
2008,01,05,05,41,977.11
2008,01,05,05,42,977.11
2008,01,05,05,43,977.11
2008,01,05,05,44,977.11
2008,01,05,05,45,976.84
2008,01,05,05,46,976.63
2008,01,05,05,47,976.63
2008,01,05,05,48,976.63
2008,01,05,05,49,976.63
2008,01,05,05,50,976.63
2008,01,05,05,51,976.63
2008,01,05,05,52,976.63
2008,01,05,05,53,976.63
2008,01,05,05,54,976.63
2008,01,05,05,55,976.63
2008,01,05,05,56,976.63
2008,01,05,05,57,976.63
2008,01,05,05,58,976.63
2008,01,05,05,59,976.63
2008,01,05,06,00,976.82
2008,01,05,06,01,976.97
2008,01,05,06,02,976.97
2008,01,05,06,03,976.97
2008,01,05,06,04,976.97
2008,01,05,06,05,976.97
2008,01,05,06,06,976.97
2008,01,05,06,07,976.97
2008,01,05,06,08,976.97
2008,01,05,06,09,976.97
2008,01,05,06,10,976.97
2008,01,05,06,11,976.97
2008,01,05,06,12,976.97
2008,01,05,06,13,976.97
2008,01,05,06,14,976.97
2008,01,05,06,15,977.14
2008,01,05,06,16,977.28
2008,01,05,06,17,977.28
2008,01,05,06,18,977.28
2008,01,05,06,19,977.28
2008,01,05,06,20,977.28
2008,01,05,06,21,977.28
2008,01,05,06,22,977.28
2008,01,05,06,23,977.28
2008,01,05,06,24,977.28
2008,01,05,06,25,977.28
2008,01,05,06,26,977.28
2008,01,05,06,27,977.28
2008,01,05,06,28,977.28
2008,01,05,06,29,977.28
2008,01,05,06,30,978.01
2008,01,05,06,31,978.60
2008,01,05,06,32,978.60
2008,01,05,06,33,978.60
2008,01,05,06,34,978.60
2008,01,05,06,35,978.60
2008,01,05,06,36,978.60
2008,01,05,06,37,978.60
2008,01,05,06,38,978.60
2008,01,05,06,39,978.60
2008,01,05,06,40,978.60
2008,01,05,06,41,978.60
2008,01,05,06,42,978.60
2008,01,05,06,43,978.60
2008,01,05,06,44,978.60
2008,01,05,06,45,978.12
2008,01,05,06,46,977.68
2008,01,05,06,47,977.68
2008,01,05,06,48,977.68
2008,01,05,06,49,977.68
2008,01,05,06,50,977.68
2008,01,05,06,51,977.68
2008,01,05,06,52,977.68
2008,01,05,06,53,977.68
2008,01,05,06,54,977.68
2008,01,05,06,55,977.68
2008,01,05,06,56,977.68
2008,01,05,06,57,977.68
2008,01,05,06,58,977.68
2008,01,05,06,59,977.68
2008,01,05,07,00,977.96
2008,01,05,07,01,978.19
2008,01,05,07,02,978.19
2008,01,05,07,03,978.19
2008,01,05,07,04,978.19
2008,01,05,07,05,978.19
2008,01,05,07,06,978.19
2008,01,05,07,07,978.19
2008,01,05,07,08,978.19
2008,01,05,07,09,978.19
2008,01,05,07,10,978.19
2008,01,05,07,11,978.19
2008,01,05,07,12,978.19
2008,01,05,07,13,978.19
2008,01,05,07,14,978.19
2008,01,05,07,15,978.43
2008,01,05,07,16,978.63
2008,01,05,07,17,978.63
2008,01,05,07,18,978.63
2008,01,05,07,19,978.63
2008,01,05,07,20,978.63
2008,01,05,07,21,978.63
2008,01,05,07,22,978.63
2008,01,05,07,23,978.63
2008,01,05,07,24,978.63
2008,01,05,07,25,978.63
2008,01,05,07,26,978.63
2008,01,05,07,27,978.63
2008,01,05,07,28,978.63
2008,01,05,07,29,978.63
2008,01,05,07,30,978.68
2008,01,05,07,31,978.73
2008,01,05,07,32,978.73
2008,01,05,07,33,978.73
2008,01,05,07,34,978.73
2008,01,05,07,35,978.73
2008,01,05,07,36,978.73
2008,01,05,07,37,978.73
2008,01,05,07,38,978.73
2008,01,05,07,39,978.73
2008,01,05,07,40,978.73
2008,01,05,07,41,978.73
2008,01,05,07,42,978.73
2008,01,05,07,43,978.73
2008,01,05,07,44,978.73
2008,01,05,07,45,979.03
2008,01,05,07,46,979.28
2008,01,05,07,47,979.28
2008,01,05,07,48,979.28
2008,01,05,07,49,979.28
2008,01,05,07,50,979.28
2008,01,05,07,51,979.28
2008,01,05,07,52,979.28
2008,01,05,07,53,979.28
2008,01,05,07,54,979.28
2008,01,05,07,55,979.28
2008,01,05,07,56,979.28
2008,01,05,07,57,979.28
2008,01,05,07,58,979.28
2008,01,05,07,59,979.28
2008,01,05,08,00,979.40
2008,01,05,08,01,979.51
2008,01,05,08,02,979.51
2008,01,05,08,03,979.51
2008,01,05,08,04,979.51
2008,01,05,08,05,979.51
2008,01,05,08,06,979.51
2008,01,05,08,07,979.51
2008,01,05,08,08,979.51
2008,01,05,08,09,979.51
2008,01,05,08,10,979.51
2008,01,05,08,11,979.51
2008,01,05,08,12,979.51
2008,01,05,08,13,979.51
2008,01,05,08,14,979.51
2008,01,05,08,15,979.83
2008,01,05,08,16,980.19
2008,01,05,08,17,980.19
2008,01,05,08,18,980.19
2008,01,05,08,19,980.19
2008,01,05,08,20,980.19
2008,01,05,08,21,980.19
2008,01,05,08,22,980.19
2008,01,05,08,23,980.19
2008,01,05,08,24,980.19
2008,01,05,08,25,980.19
2008,01,05,08,26,980.19
2008,01,05,08,27,980.19
2008,01,05,08,28,980.19
2008,01,05,08,29,980.19
2008,01,05,08,30,980.23
2008,01,05,08,31,980.26
2008,01,05,08,32,980.26
2008,01,05,08,33,980.26
2008,01,05,08,34,980.26
2008,01,05,08,35,980.26
2008,01,05,08,36,980.26
2008,01,05,08,37,980.26
2008,01,05,08,38,980.26
2008,01,05,08,39,980.26
2008,01,05,08,40,980.26
2008,01,05,08,41,980.26
2008,01,05,08,42,980.26
2008,01,05,08,43,980.26
2008,01,05,08,44,980.26
2008,01,05,08,45,980.49
2008,01,05,08,46,980.73
2008,01,05,08,47,980.73
2008,01,05,08,48,980.73
2008,01,05,08,49,980.73
2008,01,05,08,50,980.73
2008,01,05,08,51,980.73
2008,01,05,08,52,980.73
2008,01,05,08,53,980.73
2008,01,05,08,54,980.73
2008,01,05,08,55,980.73
2008,01,05,08,56,980.73
2008,01,05,08,57,980.73
2008,01,05,08,58,980.73
2008,01,05,08,59,980.73
2008,01,05,09,00,980.92
2008,01,05,09,01,981.10
2008,01,05,09,02,981.10
2008,01,05,09,03,981.10
2008,01,05,09,04,981.10
2008,01,05,09,05,981.10
2008,01,05,09,06,981.10
2008,01,05,09,07,981.10
2008,01,05,09,08,981.10
2008,01,05,09,09,981.10
2008,01,05,09,10,981.10
2008,01,05,09,11,981.10
2008,01,05,09,12,981.10
2008,01,05,09,13,981.10
2008,01,05,09,14,981.10
2008,01,05,09,15,981.30
2008,01,05,09,16,981.51
2008,01,05,09,17,981.51
2008,01,05,09,18,981.51
2008,01,05,09,19,981.51
2008,01,05,09,20,981.51
2008,01,05,09,21,981.51
2008,01,05,09,22,981.51
2008,01,05,09,23,981.51
2008,01,05,09,24,981.51
2008,01,05,09,25,981.51
2008,01,05,09,26,981.51
2008,01,05,09,27,981.51
2008,01,05,09,28,981.51
2008,01,05,09,29,981.51
2008,01,05,09,30,981.66
2008,01,05,09,31,981.85
2008,01,05,09,32,981.85
2008,01,05,09,33,981.85
2008,01,05,09,34,981.85
2008,01,05,09,35,981.85
2008,01,05,09,36,981.85
2008,01,05,09,37,981.85
2008,01,05,09,38,981.85
2008,01,05,09,39,981.85
2008,01,05,09,40,981.85
2008,01,05,09,41,981.85
2008,01,05,09,42,981.85
2008,01,05,09,43,981.85
2008,01,05,09,44,981.85
2008,01,05,09,45,981.93
2008,01,05,09,46,982.02
2008,01,05,09,47,982.02
2008,01,05,09,48,982.02
2008,01,05,09,49,982.02
2008,01,05,09,50,982.02
2008,01,05,09,51,982.02
2008,01,05,09,52,982.02
2008,01,05,09,53,982.02
2008,01,05,09,54,982.02
2008,01,05,09,55,982.02
2008,01,05,09,56,982.02
2008,01,05,09,57,982.02
2008,01,05,09,58,982.02
2008,01,05,09,59,982.02
2008,01,05,10,00,982.18
2008,01,05,10,01,982.36
2008,01,05,10,02,982.36
2008,01,05,10,03,982.36
2008,01,05,10,04,982.36
2008,01,05,10,05,982.36
2008,01,05,10,06,982.36
2008,01,05,10,07,982.36
2008,01,05,10,08,982.36
2008,01,05,10,09,982.36
2008,01,05,10,10,982.36
2008,01,05,10,11,982.36
2008,01,05,10,12,982.36
2008,01,05,10,13,982.36
2008,01,05,10,14,982.36
2008,01,05,10,15,982.69
2008,01,05,10,16,983.10
2008,01,05,10,17,983.10
2008,01,05,10,18,983.10
2008,01,05,10,19,983.10
2008,01,05,10,20,983.10
2008,01,05,10,21,983.10
2008,01,05,10,22,983.10
2008,01,05,10,23,983.10
2008,01,05,10,24,983.10
2008,01,05,10,25,983.10
2008,01,05,10,26,983.10
2008,01,05,10,27,983.10
2008,01,05,10,28,983.10
2008,01,05,10,29,983.10
2008,01,05,10,30,983.22
2008,01,05,10,31,983.37
2008,01,05,10,32,983.37
2008,01,05,10,33,983.37
2008,01,05,10,34,983.37
2008,01,05,10,35,983.37
2008,01,05,10,36,983.37
2008,01,05,10,37,983.37
2008,01,05,10,38,983.37
2008,01,05,10,39,983.37
2008,01,05,10,40,983.37
2008,01,05,10,41,983.37
2008,01,05,10,42,983.37
2008,01,05,10,43,983.37
2008,01,05,10,44,983.37
2008,01,05,10,45,983.66
2008,01,05,10,46,984.02
2008,01,05,10,47,984.02
2008,01,05,10,48,984.02
2008,01,05,10,49,984.02
2008,01,05,10,50,984.02
2008,01,05,10,51,984.02
2008,01,05,10,52,984.02
2008,01,05,10,53,984.02
2008,01,05,10,54,984.02
2008,01,05,10,55,984.02
2008,01,05,10,56,984.02
2008,01,05,10,57,984.02
2008,01,05,10,58,984.02
2008,01,05,10,59,984.02
2008,01,05,11,00,984.12
2008,01,05,11,01,984.25
2008,01,05,11,02,984.25
2008,01,05,11,03,984.25
2008,01,05,11,04,984.25
2008,01,05,11,05,984.25
2008,01,05,11,06,984.25
2008,01,05,11,07,984.25
2008,01,05,11,08,984.25
2008,01,05,11,09,984.25
2008,01,05,11,10,984.25
2008,01,05,11,11,984.25
2008,01,05,11,12,984.25
2008,01,05,11,13,984.25
2008,01,05,11,14,984.25
2008,01,05,11,15,984.32
2008,01,05,11,16,984.39
2008,01,05,11,17,984.39
2008,01,05,11,18,984.39
2008,01,05,11,19,984.39
2008,01,05,11,20,984.39
2008,01,05,11,21,984.39
2008,01,05,11,22,984.39
2008,01,05,11,23,984.39
2008,01,05,11,24,984.39
2008,01,05,11,25,984.39
2008,01,05,11,26,984.39
2008,01,05,11,27,984.39
2008,01,05,11,28,984.39
2008,01,05,11,29,984.39
2008,01,05,11,30,984.40
2008,01,05,11,31,984.42
2008,01,05,11,32,984.42
2008,01,05,11,33,984.42
2008,01,05,11,34,984.42
2008,01,05,11,35,984.42
2008,01,05,11,36,984.42
2008,01,05,11,37,984.42
2008,01,05,11,38,984.42
2008,01,05,11,39,984.42
2008,01,05,11,40,984.42
2008,01,05,11,41,984.42
2008,01,05,11,42,984.42
2008,01,05,11,43,984.42
2008,01,05,11,44,984.42
2008,01,05,11,45,984.60
2008,01,05,11,46,984.83
2008,01,05,11,47,984.83
2008,01,05,11,48,984.83
2008,01,05,11,49,984.83
2008,01,05,11,50,984.83
2008,01,05,11,51,984.83
2008,01,05,11,52,984.83
2008,01,05,11,53,984.83
2008,01,05,11,54,984.83
2008,01,05,11,55,984.83
2008,01,05,11,56,984.83
2008,01,05,11,57,984.83
2008,01,05,11,58,984.83
2008,01,05,11,59,984.83
2008,01,05,12,00,984.97
2008,01,05,12,01,985.13
2008,01,05,12,02,985.13
2008,01,05,12,03,985.13
2008,01,05,12,04,985.13
2008,01,05,12,05,985.13
2008,01,05,12,06,985.13
2008,01,05,12,07,985.13
2008,01,05,12,08,985.13
2008,01,05,12,09,985.13
2008,01,05,12,10,985.13
2008,01,05,12,11,985.13
2008,01,05,12,12,985.13
2008,01,05,12,13,985.13
2008,01,05,12,14,985.13
2008,01,05,12,15,985.26
2008,01,05,12,16,985.44
2008,01,05,12,17,985.44
2008,01,05,12,18,985.44
2008,01,05,12,19,985.44
2008,01,05,12,20,985.44
2008,01,05,12,21,985.44
2008,01,05,12,22,985.44
2008,01,05,12,23,985.44
2008,01,05,12,24,985.44
2008,01,05,12,25,985.44
2008,01,05,12,26,985.44
2008,01,05,12,27,985.44
2008,01,05,12,28,985.44
2008,01,05,12,29,985.44
2008,01,05,12,30,985.47
2008,01,05,12,31,985.51
2008,01,05,12,32,985.51
2008,01,05,12,33,985.51
2008,01,05,12,34,985.51
2008,01,05,12,35,985.51
2008,01,05,12,36,985.51
2008,01,05,12,37,985.51
2008,01,05,12,38,985.51
2008,01,05,12,39,985.51
2008,01,05,12,40,985.51
2008,01,05,12,41,985.51
2008,01,05,12,42,985.51
2008,01,05,12,43,985.51
2008,01,05,12,44,985.51
2008,01,05,12,45,985.67
2008,01,05,12,46,985.91
2008,01,05,12,47,985.91
2008,01,05,12,48,985.91
2008,01,05,12,49,985.91
2008,01,05,12,50,985.91
2008,01,05,12,51,985.91
2008,01,05,12,52,985.91
2008,01,05,12,53,985.91
2008,01,05,12,54,985.91
2008,01,05,12,55,985.91
2008,01,05,12,56,985.91
2008,01,05,12,57,985.91
2008,01,05,12,58,985.91
2008,01,05,12,59,985.91
2008,01,05,13,00,985.93
2008,01,05,13,01,985.95
2008,01,05,13,02,985.95
2008,01,05,13,03,985.95
2008,01,05,13,04,985.95
2008,01,05,13,05,985.95
2008,01,05,13,06,985.95
2008,01,05,13,07,985.95
2008,01,05,13,08,985.95
2008,01,05,13,09,985.95
2008,01,05,13,10,985.95
2008,01,05,13,11,985.95
2008,01,05,13,12,985.95
2008,01,05,13,13,985.95
2008,01,05,13,14,985.95
2008,01,05,13,15,985.98
2008,01,05,13,16,986.02
2008,01,05,13,17,986.02
2008,01,05,13,18,986.02
2008,01,05,13,19,986.02
2008,01,05,13,20,986.02
2008,01,05,13,21,986.02
2008,01,05,13,22,986.02
2008,01,05,13,23,986.02
2008,01,05,13,24,986.02
2008,01,05,13,25,986.02
2008,01,05,13,26,986.02
2008,01,05,13,27,986.02
2008,01,05,13,28,986.02
2008,01,05,13,29,986.02
2008,01,05,13,30,986.12
2008,01,05,13,31,986.25
2008,01,05,13,32,986.25
2008,01,05,13,33,986.25
2008,01,05,13,34,986.25
2008,01,05,13,35,986.25
2008,01,05,13,36,986.25
2008,01,05,13,37,986.25
2008,01,05,13,38,986.25
2008,01,05,13,39,986.25
2008,01,05,13,40,986.25
2008,01,05,13,41,986.25
2008,01,05,13,42,986.25
2008,01,05,13,43,986.25
2008,01,05,13,44,986.25
2008,01,05,13,45,986.31
2008,01,05,13,46,986.39
2008,01,05,13,47,986.39
2008,01,05,13,48,986.39
2008,01,05,13,49,986.39
2008,01,05,13,50,986.39
2008,01,05,13,51,986.39
2008,01,05,13,52,986.39
2008,01,05,13,53,986.39
2008,01,05,13,54,986.39
2008,01,05,13,55,986.39
2008,01,05,13,56,986.39
2008,01,05,13,57,986.39
2008,01,05,13,58,986.39
2008,01,05,13,59,986.39
2008,01,05,14,00,986.46
2008,01,05,14,01,986.56
2008,01,05,14,02,986.56
2008,01,05,14,03,986.56
2008,01,05,14,04,986.56
2008,01,05,14,05,986.56
2008,01,05,14,06,986.56
2008,01,05,14,07,986.56
2008,01,05,14,08,986.56
2008,01,05,14,09,986.56
2008,01,05,14,10,986.56
2008,01,05,14,11,986.56
2008,01,05,14,12,986.56
2008,01,05,14,13,986.56
2008,01,05,14,14,986.56
2008,01,05,14,15,986.60
2008,01,05,14,16,986.66
2008,01,05,14,17,986.66
2008,01,05,14,18,986.66
2008,01,05,14,19,986.66
2008,01,05,14,20,986.66
2008,01,05,14,21,986.66
2008,01,05,14,22,986.66
2008,01,05,14,23,986.66
2008,01,05,14,24,986.66
2008,01,05,14,25,986.66
2008,01,05,14,26,986.66
2008,01,05,14,27,986.66
2008,01,05,14,28,986.66
2008,01,05,14,29,986.66
2008,01,05,14,30,986.67
2008,01,05,14,31,986.69
2008,01,05,14,32,986.69
2008,01,05,14,33,986.69
2008,01,05,14,34,986.69
2008,01,05,14,35,986.69
2008,01,05,14,36,986.69
2008,01,05,14,37,986.69
2008,01,05,14,38,986.69
2008,01,05,14,39,986.69
2008,01,05,14,40,986.69
2008,01,05,14,41,986.69
2008,01,05,14,42,986.69
2008,01,05,14,43,986.69
2008,01,05,14,44,986.69
2008,01,05,14,45,986.80
2008,01,05,14,46,986.96
2008,01,05,14,47,986.96
2008,01,05,14,48,986.96
2008,01,05,14,49,986.96
2008,01,05,14,50,986.96
2008,01,05,14,51,986.96
2008,01,05,14,52,986.96
2008,01,05,14,53,986.96
2008,01,05,14,54,986.96
2008,01,05,14,55,986.96
2008,01,05,14,56,986.96
2008,01,05,14,57,986.96
2008,01,05,14,58,986.96
2008,01,05,14,59,986.96
2008,01,05,15,00,986.99
2008,01,05,15,01,987.03
2008,01,05,15,02,987.03
2008,01,05,15,03,987.03
2008,01,05,15,04,987.03
2008,01,05,15,05,987.03
2008,01,05,15,06,987.03
2008,01,05,15,07,987.03
2008,01,05,15,08,987.03
2008,01,05,15,09,987.03
2008,01,05,15,10,987.03
2008,01,05,15,11,987.03
2008,01,05,15,12,987.03
2008,01,05,15,13,987.03
2008,01,05,15,14,987.03
2008,01,05,15,15,987.03
2008,01,05,15,16,987.03
2008,01,05,15,17,987.03
2008,01,05,15,18,987.03
2008,01,05,15,19,987.03
2008,01,05,15,20,987.03
2008,01,05,15,21,987.03
2008,01,05,15,22,987.03
2008,01,05,15,23,987.03
2008,01,05,15,24,987.03
2008,01,05,15,25,987.03
2008,01,05,15,26,987.03
2008,01,05,15,27,987.03
2008,01,05,15,28,987.03
2008,01,05,15,29,987.03
2008,01,05,15,30,987.07
2008,01,05,15,31,987.13
2008,01,05,15,32,987.13
2008,01,05,15,33,987.13
2008,01,05,15,34,987.13
2008,01,05,15,35,987.13
2008,01,05,15,36,987.13
2008,01,05,15,37,987.13
2008,01,05,15,38,987.13
2008,01,05,15,39,987.13
2008,01,05,15,40,987.13
2008,01,05,15,41,987.13
2008,01,05,15,42,987.13
2008,01,05,15,43,987.13
2008,01,05,15,44,987.13
2008,01,05,15,45,987.27
2008,01,05,15,46,987.47
2008,01,05,15,47,987.47
2008,01,05,15,48,987.47
2008,01,05,15,49,987.47
2008,01,05,15,50,987.47
2008,01,05,15,51,987.47
2008,01,05,15,52,987.47
2008,01,05,15,53,987.47
2008,01,05,15,54,987.47
2008,01,05,15,55,987.47
2008,01,05,15,56,987.47
2008,01,05,15,57,987.47
2008,01,05,15,58,987.47
2008,01,05,15,59,987.47
2008,01,05,16,00,987.48
2008,01,05,16,01,987.51
2008,01,05,16,02,987.51
2008,01,05,16,03,987.51
2008,01,05,16,04,987.51
2008,01,05,16,05,987.51
2008,01,05,16,06,987.51
2008,01,05,16,07,987.51
2008,01,05,16,08,987.51
2008,01,05,16,09,987.51
2008,01,05,16,10,987.51
2008,01,05,16,11,987.51
2008,01,05,16,12,987.51
2008,01,05,16,13,987.51
2008,01,05,16,14,987.51
2008,01,05,16,15,987.67
2008,01,05,16,16,987.98
2008,01,05,16,17,987.98
2008,01,05,16,18,987.98
2008,01,05,16,19,987.98
2008,01,05,16,20,987.98
2008,01,05,16,21,987.98
2008,01,05,16,22,987.98
2008,01,05,16,23,987.98
2008,01,05,16,24,987.98
2008,01,05,16,25,987.98
2008,01,05,16,26,987.98
2008,01,05,16,27,987.98
2008,01,05,16,28,987.98
2008,01,05,16,29,987.98
2008,01,05,16,30,988.00
2008,01,05,16,31,988.05
2008,01,05,16,32,988.05
2008,01,05,16,33,988.05
2008,01,05,16,34,988.05
2008,01,05,16,35,988.05
2008,01,05,16,36,988.05